Regional Weather Roundup
Issued by NWS

Home | Current Version | Previous Version | Text Only | Print | Product List | Glossary Off
Versions: 1 2 3 4 5 6 7 8 9 10 11 12 13 14 15 16 17 18 19 20 21 22 23 24 25 26 27 28 29 30 31 32 33 34 35 36 37 38 39 40 41 42 43 44 45 46 47 48 49 50

000
ASUS43 KFSD 230402
RWRSD

WEATHER ROUNDUP FOR SOUTH DAKOTA
NATIONAL WEATHER SERVICE SIOUX FALLS SD
1100 PM CDT MON AUG 22 2016

NOTE: "FAIR" INDICATES FEW OR NO CLOUDS BELOW 12,000 FEET WITH NO
SIGNIFICANT WEATHER AND/OR OBSTRUCTIONS TO VISIBILITY.


SDZ001>005-009-010-012>017-230500-
NORTHWEST AND NORTH CENTRAL SOUTH DAKOTA

CITY           SKY/WX    TMP DP  RH WIND       PRES   REMARKS
BUFFALO          N/A     75  53  46 W3        29.62S
FAITH            N/A     79  49  34 NE5       29.63F
MOBRIDGE       PTCLDY    82  62  50 S12       29.58R
$$

SDZ012>016-024>037-041>051-057-063-072>074-230500-
SOUTHWEST AND SOUTH CENTRAL SOUTH DAKOTA

CITY           SKY/WX    TMP DP  RH WIND       PRES   REMARKS
RAPID CTY ARPT CLOUDY    60  48  64 CALM      29.69S
PIERRE         CLOUDY    80  59  48 SE13      29.65R
CUSTER         CLOUDY    66  29  24 S5        29.90R
ELLSWORTH AFB  CLEAR     72  46  38 SW3       29.69R
PHILIP         PTCLDY    82  56  40 S10       29.65S
PINE RIDGE     CLOUDY    79  56  45 S21       29.76S
WINNER         FAIR      83  59  44 S30G39    29.73S
$$

SDZ004>011-016>023-039-040-230500-
NORTHEAST SOUTH DAKOTA

CITY           SKY/WX    TMP DP  RH WIND       PRES   REMARKS
ABERDEEN       CLEAR     77  64  64 S21G31    29.68R
WATERTOWN      CLOUDY    74  64  71 S20G26    29.80S
BROOKINGS      CLOUDY    72  62  71 S17G25    29.85
$$

SDZ017-020-022-023-036>040-048>070-230500-
SOUTHEAST SOUTH DAKOTA

CITY           SKY/WX    TMP DP  RH WIND       PRES   REMARKS
SIOUX FALLS    PTCLDY    75  61  61 S16       29.88R
HURON          CLOUDY    76  63  64 S18G26    29.74R
CHAMBERLAIN    PTCLDY    82  64  54 S17G25    29.73R
MITCHELL       CLOUDY    76  63  64 S21G26    29.79R
YANKTON        CLOUDY    73  59  60 S17       29.85S
$$

ABBREVIATIONS USED IN REMARKS
   TC - TEMPERATURE IN CELSIUS
  WCI - WIND CHILL INDEX
   HX - HEAT INDEX
  VSB - VISIBILITY





USA.gov is the U.S. government's official web portal to all federal, state and local government web resources and services.